Время (UTC), дата Ветер
(°,м/с) 
Видим.   Явления Облачность Т
(°С)
Тd
(°С)
f(%) Тe
(°С)
Pmin
(гПа)
dP
(гПа)
Po
(мм)
O2
(г/м3)
Тmin Tmax R s Состояние
почвы
00 01.11.15 270 (З) 10 км  {снег}  10/10 360 м 
[St]
-0.8 -3.2 84 -2  1028.5  -2  760  308           
03 01.11.15 270 (З) 2000 м  снег  10/10 240 м 
[Frnb|Ns]
-1.2 -2.4 92 -2  1026.6  -1.9  759  307  -1.2    равномерный
сухой снег
100% 
06 01.11.15 270 (З) 10 км  {снег}  10/10 300 м 
[St]
-1.1 -2.9 87 -4  1025.4  -1.2  758  307  -1.3         
09 01.11.15 270 (З) 10 км    10/10 600 м 
[Sc]
+0.1 -3.1 79 -1  1023.8  -1.5  757  305           
12 01.11.15 280 (З) 10 км    10/10 600 м 
[Sc]
+0.1 -3.1 79 -1  1023.8  -1.2  756  305           
15 01.11.15 240 (ЮЗ) 10 км    10/10 400 м 
[St]
-0.3 -3.4 79 -1  1021.7  -0.8  755  305    +0.2  0.3     
18 01.11.15 240 (ЮЗ) 10 км    10/10 360 м 
[St]
-0.3 -2.8 83 1019.9  -1.8  754  304           
21 01.11.15 230 (ЮЗ) 4000 м  слаб. снег  10/10 480 м 
[Frnb|Ns]
-0.4 -2.2 88 -1  1017.6  -2.3  752  304           
00 02.11.15 250 (З) 4000 м  морось{снег}  10/10 180 м 
[St]
-0.5 -2.2 88 1014.2  -3.4  749  303           
03 02.11.15 170 (Ю) 4000 м  снег{морось}  10/10 180 м 
[Frnb|Ns]
-0.4 -1.8 90 1010.8  -3.3  747  302  -0.6    0.4  равномерный
сухой снег
100% 
06 02.11.15 210 (ЮЗ) 4000 м  дымка{снег, морось}  10/10 300 м 
[Frnb]
+0.3 -0.9 92 +1  1007.5  -3.2  745  300           
09 02.11.15 260 (З) 4000 м  в посл. час снег  10/10 300 м 
[St]
+1.4 +0 90 +1  1006.1  -1.4  743  298           
12 02.11.15 300 (СЗ) 4000 м  дымка{снег}  10/10 270 м 
[St]
+2.3 +1 91 +2  1006.1  0.1  744  297           
15 02.11.15 290 (З) 4000 м  в посл. час морось{снег}  10/10 210 м 
[St]
+2.9 +1.7 92 +2  1006.9  0.8  744  296    +2.9  0.6     
18 02.11.15 240 (ЮЗ) 4000 м  дымка{морось}  10/10 180 м 
[St]
+3.1 +2 92 +4  1006.6  -0.3  744  296           
21 02.11.15 260 (З) 10 км    10/10 420 м 
[St]
+3.4 +2.1 91 +3  1004.8  -1.7  743  295           
00 03.11.15 270 (З) 10 км    10/10 400 м 
[St]
+3.9 +2.2 89 +3  1003.3  -1.5  742  294           
03 03.11.15 250 (З) 4000 м  морось  10/10 240 м 
[St]
+4.2 +2.7 90 +4  1001.7  -1.6  740  293  +2.9    0.0     
06 03.11.15 250 (З) 2000 м  морось{дождь}  10/10 60 м 
[St]
+4.4 +3.4 93 +5  999.9  -1.7  739  293           
09 03.11.15 270 (З) 10 км  слаб. дождь{морось}  10/10 180 м 
[Frnb|Ns]
+5.4 +4.4 93 +6  998.5  -1.3  738  291           
12 03.11.15 290 (З) 4000 м  дождь{морось}  10/10 180 м 
[Frnb|Ns]
+5.6 +4.5 93 +5  998.4  -0.1  738  291           
15 03.11.15 290 (З) 4000 м  морось{дождь}  10/10 100 м 
[St]
+5.7 +4.7 93 +7  999  0.6  738  291    +5.7     
18 03.11.15 320 (СЗ) 10 км  {дождь, морось}  10/10 900 м 
[Sc]
+5.3 +3.7 89 +5  1000.5  1.5  740  292           
21 03.11.15 310 (СЗ) 10 км  в посл. час дождь  10/0 средняя 
[Frnb|As op]
+4.9 +2.9 87 +4  1002  1.4  741  293           
00 04.11.15 310 (СЗ) 10 км  {дождь}  10/10 540 м 
[Sc]
+5 +2.6 84 +4  1003.1  1.1  741  293           
03 04.11.15 310 (СЗ) 10 км    8/8 450 м 
[Sc]
+4.6 +2.3 85 +4  1004.7  1.5  743  294  +4.6    0.0     
06 04.11.15 310 (СЗ) 10 км    10/10 600 м 
[Sc]
+4.9 +2 81 +5  1006.2  1.5  744  294  +4.4         
09 04.11.15 310 (СЗ) 10 км  в посл. час ливневой дождь  10/8 600 м кучево-дожд., средняя, верхняя 
[Cb cap|Ac trans|Ci fib]
+5.1 +2.2 81 +4  1007.2  745  294           
12 04.11.15 300 (СЗ) 2{10}  10 км  в посл. час ливневой дождь  10/10 720 м кучево-дожд. 
[Cb cap]
+4.6 +1 77 +4  1008  0.7  745  295           
15 04.11.15 280 (З) 10 км    10/8 660 м средняя 
[Sc diur, vesp|Ac trans]
+3.8 +1.5 85 +3  1009  746  296    +5.5  0.0     
18 04.11.15 300 (СЗ) 4000 м  дождь  10/10 400 м 
[Frnb|Ns]
+3.3 +1.4 87 +4  1009.1  746  297           
21 04.11.15 тихо ()   10 км  {дождь}  10/10 1020 м 
[Sc]
+2.6 +0.8 88 +3  1008.6  -0.5  745  297           
00 05.11.15 250 (З) 10 км  {дождь}  9/0 средняя 
[Ac lent]
+2.3 +0.3 87 +2  1007.4  -1.2  745  297           
03 05.11.15 250 (З) 10 км    10/10 180 м 
[St]
+2.1 +0.7 90 +1  1005.8  -1.6  743  297  +2.1    0.9     
06 05.11.15 240 (ЮЗ) 10 км  слаб. морось  10/10 120 м 
[St]
+2.8 +1.4 90 +1  1003.2  -2.6  741  295  +2.1         
09 05.11.15 250 (З) 4000 м  дождь{морось}  10/10 180 м 
[Frnb|Ns]
+4.3 +3 91 +4  1001.1  -2  740  293           
12 05.11.15 270 (З) 10 км  в посл. час дождь{морось}  10/10 240 м 
[Frnb|Ns]
+4.4 +3.3 93 +4  999.7  -1.4  739  292           
15 05.11.15 290 (З) 10 км  в посл. час дождь  10/10 400 м 
[Frnb|Ns]
+4.9 +3.8 92 +4  1000.9  1.1  740  292    +5     
18 05.11.15 310 (СЗ) 4-10{11}  10 км  в посл. час дождь  10/8 700 м средняя 
[Frnb|As op]
+3.6 +0.1 78 +2  1002.7  1.7  741  295           
21 05.11.15 310 (СЗ) 3{10}  4000 м  дождь  10/10 330 м 
[Frnb|Ns]
+2.5 +0.1 84 +1  1004.8  743  296           
00 06.11.15 310 (СЗ) 3{11}  10 км  слаб. дождь  10/10 420 м 
[Frnb|Ns]
+2.3 -0.4 82 +1  1006.5  1.6  744  297           
03 06.11.15 320 (СЗ) 4{10}  10 км  слаб. дождь со снегом  10/10 480 м 
[Frnb|Ns]
+1.9 -0.1 87 1008.3  1.7  745  298  +1.4       
06 06.11.15 330 (СЗ) 4{11}  10 км  {снег, дождь}  9/9 630 м 
[Sc]
+2 -1.1 80 1011  2.6  747  299           
09 06.11.15 320 (СЗ) 3{10}  10 км  в посл. час ливневой снег  9/9 660 м кучево-дожд. 
[Cb cap]
+2.7 -0.6 79 +1  1013.4  2.4  749  299           
12 06.11.15 310 (СЗ) 4{12}  10 км  {ливн. осадки}  9/9 800 м 
[Cu Sc]
+2.6 -1.1 77 +1  1016.4  2.9  751  300           
15 06.11.15 310 (СЗ) 10 км  слаб. снег  10/10 600 м 
[Sc]
+2.2 -0.9 80 1018.4  1.9  753  301    +3  0.0     
18 06.11.15 320 (СЗ) 10 км  слаб. снег  10/10 900 м 
[Sc]
+1.8 -3.3 69 1019.9  1.4  754  302           
21 06.11.15 310 (СЗ) 3{10}  10 км  {снег}  10/10 1020 м 
[Sc]
+0.9 -5.4 63 -1  1021.4  1.5  755  304           
00 07.11.15 320 (СЗ) 10 км  {снег}  10/10 800 м 
[Sc]
+0.2 -5.4 66 -2  1022.3  0.8  755  305           
03 07.11.15 290 (З) 10 км  снежные кристаллы  10/10 800 м 
[Sc]
-0.2 -5.1 69 1023.3  756  305  -0.2    0.0     
06 07.11.15 300 (СЗ) 10 км  {снег}  9/0 средняя 
[Ac lent]
+0 -3.9 75 -2  1023.8  0.5  757  305  -0.6         
09 07.11.15 280 (З) 10 км    9/5 600 м средняя 
[Sc|Ac lent]
+0.8 -2.9 76 -1  1024.1  0.3  757  304           
12 07.11.15 280 (З) 10 км    10/10 480 м 
[Sc]
+0.2 -3 79 -2  1024.4  0.3  757  305           
15 07.11.15 280 (З) 10 км    10/10 300 м 
[St]
-0.5 -3 83 -2  1024.7  0.2  757  306    +1.1  0.0     
18 07.11.15 270 (З) 10 км    10/10 330 м 
[St]
-0.7 -3 84 -2  1024.4  -0.4  757  306           
21 07.11.15 270 (З) 10 км    10/10 700 м 
[Sc]
-1 -3.7 82 -2  1023.4  -1  756  306           
00 08.11.15 280 (З) 10 км    10/10 480 м 
[Sc]
+0.2 -3 79 -2  1024.4  0.3  757  305           
03 08.11.15 260 (З) 2000 м  снег  10/10 300 м 
[Frnb|Ns]
-1.9 -3.3 90 -4  1019.9  -1.8  754  306  -1.9    0.6  <0.5  сухой снег
10-40% 
06 08.11.15 270 (З) 4000 м  слаб. снег  10/10 330 м 
[Frnb|Ns]
-1 -2.3 91 -2  1019.5  -0.3  753  305  -2         
09 08.11.15 290 (З) 2000 м  снег  10/10 180 м 
[Frnb|Ns]
-0.6 -2.4 88 -1  1019.5  0.1  753  305           
12 08.11.15 270 (З) 2000 м  снег  10/10 180 м 
[Frnb|Ns]
-0.7 -2 91 -2  1019.2  -0.3  753  304           
15 08.11.15 тихо ()   0500 м  сильн. снег  10/10 120 м 
[Frnb|Ns]
-0.8 -1.9 92 -1  1019.1  -0.2  753  305    -0.5     
18 08.11.15 130 (ЮВ) 2000 м  снег [диам. отлож. мокр. снега 10 мм]  10/10 150 м 
[Frnb|Ns]
-1.2 -2.2 93 -1  1019  0.1  753  305           
21 08.11.15 100 (В) 10 км  слаб. снег [диам. отлож. мокр. снега 10 мм]  10/10 720 м 
[Sc]
-1.3 -2.2 94 -2  1018.7  -0.3  753  305           
00 09.11.15 100 (В) 10 км  {снег} [диам. отлож. мокр. снега 10 мм]  10/10 180 м 
[St]
-1.3 -2.4 92 -2  1018.7  0.1  753  305           
03 09.11.15 090 (В) 10 км  [диам. отлож. мокр. снега 10 мм]  10/10 150 м 
[St]
-1.5 -2.5 93 -2  1018.9  0.2  753  305  -1.5    12  равномерный
мокрый или
старый снег
100% 
06 09.11.15 100 (В) 10 км    10/10 210 м 
[St]
-1.9 -3 92 -3  1019.4  0.4  753  306  -1.9         
09 09.11.15 100 (В) 10 км    10/10 330 м 
[St]
-2 -3.5 90 -4  1019.1  -0.2  753  306           
12 09.11.15 100 (В) 10 км    10/10 330 м 
[St]
-2.3 -3.9 89 -4  1018.8  -0.3  753  306           
15 09.11.15 100 (В) 10 км    10/10 420 м 
[St]
-3 -4.8 87 -5  1018.5  -0.3  752  307    -1.5       
18 09.11.15 100 (В) 10 км    10/10 420 м 
[St]
-3.7 -5.4 88 -5  1017.9  -0.6  752  308           
21 09.11.15 100 (В) 10 км    10/10 450 м 
[Sc]
-4.2 -5.9 88 -6  1016.7  -1.2  751  308           
00 10.11.15 080 (В) 10 км    10/10 300 м 
[St]
-4.2 -5.8 89 -5  1015.1  -1.6  750  308           
03 10.11.15 090 (В) н/о    н/о 
-4.3 -5.6 91 -7  1013.6  -1.4  749  307  -4.3         
06 10.11.15 100 (В) 1000 м  сильн. снег  н/о 
-3.6 -4.9 91 -6  1011.7  -1.8  747  306           
09 10.11.15 090 (В) 2000 м  снег  10/10 330 м 
[Frnb|Ns]
-1.9 -3.3 90 -3  1009.4  -2.2  746  303           
12 10.11.15 100 (В) 4000 м  слаб. снег  10/10 180 м 
[Frnb|Ns]
-0.2 -1.4 92 1007.5  -1.8  744  300           
15 10.11.15 150 (ЮВ) н/о    н/о 
+0.4 -0.6 93 1006  -1.4  743  299    +0.4       
18 10.11.15 150 (ЮВ) 4000 м  слаб. снег  10/10 270 м 
[Ns]
+0.4 -0.7 92 1004.8  -1.2  743  299           
21 10.11.15 140 (ЮВ) 4000 м  слаб. снег  10/10 330 м 
[Ns]
+0 -1.1 92 -2  1003.3  -1.5  741  299           
00 11.11.15 130 (ЮВ) 2000 м  снег [диам. отлож. мокр. снега 2 мм]  10/10 240 м 
[Frnb|Ns]
-0.5 -1.7 92 -1  1001.7  -1.6  740  299          затоплена
водой 
03 11.11.15 130 (ЮВ) 4000 м  слаб. снег  10/10 270 м 
[Frnb|Ns]
-0.8 -2 91 -2  1000.4  -1.3  739  299  -0.9    13  равномерный
мокрый или
старый снег
100% 
06 11.11.15 130 (ЮВ) 2000 м  снег  10/10 180 м 
[Frnb|Ns]
-0.5 -1.6 92 -2  999.2  -1.1  738  298           
09 11.11.15 140 (ЮВ) 4000 м  слаб. снег  10/10 300 м 
[Frnb|Ns]
+0.2 -1.2 90 -2  998.5  -0.7  738  297           
12 11.11.15 130 (ЮВ) 2000 м  снег  10/10 180 м 
[Frnb|Ns]
-0.2 -1.4 92 -2  998  -0.4  737  297           
15 11.11.15 120 (ЮВ) 4000 м  слаб. снег  10/10 270 м 
[Frnb|Ns]
-0.4 -1.4 93 -1  997.9  0.1  737  298    +0.4     
18 11.11.15 100 (В) 4000 м  слаб. снег  10/10 300 м 
[Frnb|Ns]
-0.3 -1.3 93 -1  997.5  -0.4  737  297           
21 11.11.15 120 (ЮВ) 10 км  {снег}  10/10 270 м 
[Frnb|Ns]
+0.4 -0.4 94 997.5  737  297           
00 12.11.15 100 (В) 10 км  {снег}  10/10 180 м 
[St]
+0.7 -0.4 92 997.8  0.3  737  296           
03 12.11.15 100 (В) 10 км  слаб. снег  10/10 210 м 
[St]
+0.8 -0.1 94 998.2  0.4  738  296  -0.4    13  равномерный
мокрый или
старый снег
100% 
06 12.11.15 100 (В) 2000 м  снег  10/10 270 м 
[Frnb|Ns]
+0.5 -0.5 93 -1  999.2  738  297           
09 12.11.15 100 (В) 10 км  в посл. час снег  10/10 180 м 
[Frnb|Ns]
+0.9 -0.1 93 1000.1  0.9  739  297           
12 12.11.15 110 (В) 2000 м  слаб. дождь{снег}  10/10 200 м 
[Frnb|Ns]
+0.9 -0.1 93 +2  1001.8  1.7  740  297           
15 12.11.15 140 (ЮВ) 4000 м  морось{дождь}  10/10 150 м 
[St]
+0.9 +0.1 94 1003.3  1.5  741  298    +1.1     
18 12.11.15 120 (ЮВ) 4000 м  слаб. снег{дождь}  10/10 180 м 
[Frnb|Ns]
+0.4 -0.4 94 +1  1004.1  0.7  742  299           
21 12.11.15 120 (ЮВ) 4000 м  слаб. снег  10/10 180 м 
[Frnb|Ns]
+0.3 -0.5 94 1005  0.9  743  299           
00 13.11.15 130 (ЮВ) 2000 м  снег  10/10 150 м 
[Frnb|Ns]
+0.2 -0.6 94 +1  1005.4  0.4  743  299           
03 13.11.15 120 (ЮВ) 4000 м  слаб. снег  10/10 180 м 
[Frnb|Ns]
+0.2 -0.6 94 +1  1006.2  0.8  744  299  +0.2    13  равномерный
мокрый или
старый снег
100% 
06 13.11.15 120 (ЮВ) 4000 м  снег  10/10 210 м 
[Frnb|Ns]
+0.2 -0.6 94 +1  1007.2  744  300  +0.1         
09 13.11.15 130 (ЮВ) 4000 м  снег  10/10 300 м 
[Frnb|Ns]
+0.2 -0.8 93 +1  1008  0.8  745  300           
12 13.11.15 110 (В) 4000 м  снежные зёрна  10/10 180 м 
[St]
-0 -1 93 +1  1009.6  1.5  746  301           
15 13.11.15 090 (В) 4000 м  снежные зёрна  10/10 240 м 
[St]
-0.6 -1.6 93 -1  1010.9  1.3  747  302    +0.3     
18 13.11.15 100 (В) 1000 м  снежные зёрна  10/10 100 м 
[St]
-0.9 -1.8 94 1011.9  748  302           
21 13.11.15 090 (В) 2000 м  снег  10/10 120 м 
[Frnb|Ns]
-1.1 -2.1 93 -1  1013.1  1.1  749  303           
00 14.11.15 100 (В) 2000 м  снег  10/10 100 м 
[Frnb|Ns]
-1.5 -2.6 92 -1  1014.1  749  304           
03 14.11.15 070 (В) 4000 м  снег  10/10 240 м 
[Frnb|Ns]
-2.2 -3.4 91 -2  1015.7  1.5  750  305  -2.2    13  равномерный
сухой снег
100% 
06 14.11.15 050 (СВ) 4000 м  слаб. снег  10/0 средняя 
[As op]
-2.7 -4.2 89 -2  1017.1  1.4  752  306  -3.2         
09 14.11.15 010 (С) 4000 м  слаб. снег  10/10 400 м 
[Frnb|Ns]
-2.7 -4.7 86 -4  1017.5  0.3  752  306           
12 14.11.15 060 (СВ) 10 км  {снег}  10/9 400 м средняя 
[Frnb|As op]
-5 -6.6 89 -6  1018.7  1.1  753  310           
15 14.11.15 060 (СВ) 10 км    10/8 1200 м средняя 
[Sc|As trans]
-5.9 -7.7 87 -7  1019.5  0.7  753  311    -2.2  0.2     
18 14.11.15 100 (В) 10 км    10/8 1000 м средняя 
[Sc|Ac trans]
-8.1 -9.9 87 -10  1019.2  -0.3  753  314           
21 14.11.15 090 (В) 10 км    10/9 1320 м средняя 
[Sc|Ac trans]
-8.5 -10.4 86 -8  1019.1  -0.2  753  314           
00 15.11.15 090 (В) 10 км    10/10 1200 м 
[Sc]
-8.9 -10.8 86 -9  1018  -1.1  752  314           
03 15.11.15 100 (В) 10 км    10/10 1170 м 
[Sc]
-9.6 -11.3 87 -11  1017.2  -0.8  751  315  -9.7      12  равномерный
сухой снег
100% 
06 15.11.15 100 (В) 10 км    10/0 средняя 
[As op]
-8.2 -9.8 88 -10  1016.7  -0.4  751  313           
09 15.11.15 100 (В) 10 км    9/8 400 м средняя 
[St|As op]
-6.2 -8.3 85 -8  1015.8  -0.8  750  310           
12 15.11.15 100 (В) 10 км    10/10 240 м 
[St]
-5.8 -7.5 88 -7  1015.9  750  310           
15 15.11.15 100 (В) 10 км    10/10 240 м 
[St]
-4.6 -6.1 89 -7  1015.7  0.1  750  308    -4.6       
18 15.11.15 100 (В) 10 км    10/10 400 м 
[St]
-3.3 -4.8 89 -5  1015  -0.6  750  306           
21 15.11.15 100 (В) 10 км    10/10 930 м 
[Sc]
-2.3 -4.1 87 -4  1014.9  750  305           
00 16.11.15 100 (В) 10 км    9/6 300 м средняя 
[Frnb|As op]
-3.9 -5.8 87 -6  1015.3  0.3  750  307           
03 16.11.15 100 (В) 10 км    9/4 400 м средняя 
[Frnb|As op]
-5.2 -7.2 86 -8  1015.4  750  309  -5.2      12  равномерный
сухой снег
100% 
06 16.11.15 100 (В) 4000 м  слаб. снег  10/8 1080 м средняя 
[Sc|As op]
-4.8 -6.9 85 -8  1015.7  0.4  750  308           
09 16.11.15 090 (В) 10 км  в посл. час снег  10/9 450 м средняя 
[Frnb|As op]
-3.5 -5.9 83 -6  1015.9  0.2  751  307           
12 16.11.15 100 (В) 10 км  слаб. снег  10/8 450 м средняя 
[Frnb|As op]
-3.2 -5.3 85 -5  1016.1  0.2  751  307           
15 16.11.15 110 (В) 4000 м  слаб. снег  10/9 400 м средняя 
[Frnb|As op]
-3.1 -4.9 87 -5  1016.5  0.5  751  307    -3.1  0.3     
18 16.11.15 100 (В) 10 км  слаб. снег  10/8 300 м средняя 
[Frnb|As op]
-3.2 -5.1 87 -5  1016.9  0.3  751  307           
21 16.11.15 120 (ЮВ) 10 км  слаб. снег  10/10 660 м 
[Sc]
-3.9 -6 85 -5  1018  1.1  752  308           
00 17.11.15 100 (В) 10 км  {снег}  10/10 360 м 
[St]
-4.1 -6.2 85 -6  1018.7  0.6  753  309           
03 17.11.15 100 (В) 10 км    10/10 420 м 
[St]
-4 -6.1 85 -5  1019.3  0.7  753  309  -4.2      11  равномерный
сухой снег
100% 
06 17.11.15 100 (В) 10 км    10/10 400 м 
[St]
-3.9 -6.1 85 -5  1020.5  1.2  754  309           
09 17.11.15 110 (В) 10 км    10/10 330 м 
[St]
-3.5 -6 83 -5  1021.6  1.1  755  309           
12 17.11.15 100 (В) 10 км    10/10 420 м 
[St]
-3.9 -6.3 83 -5  1022.4  0.8  755  309           
15 17.11.15 100 (В) 4000 м  слаб. снег  10/10 420 м 
[Ns]
-4.2 -6.1 87 -5  1023.5  1.1  756  310    -3.3  0.0     
18 17.11.15 120 (ЮВ) 4000 м  слаб. снег  10/10 420 м 
[Ns]
-4.2 -6 87 -4  1024.3  0.8  757  310           
21 17.11.15 120 (ЮВ) 10 км  слаб. снег  10/10 400 м 
[Ns]
-4.3 -6 88 -4  1024.9  0.5  757  311           
00 18.11.15 120 (ЮВ) 10 км  {снег}  10/10 480 м 
[Sc]
-4.5 -6 89 -6  1024.9  757  311           
03 18.11.15 110 (В) 10 км    10/10 540 м 
[Sc]
-5 -6.6 89 -6  1024.8  0.1  757  311  -5    0.0  11  равномерный
сухой снег
100% 
06 18.11.15 100 (В) 10 км    10/10 570 м 
[Sc]
-5.3 -7.2 86 -8  1025.3  0.4  757  312  -5.3         
09 18.11.15 140 (ЮВ) 10 км    10/10 500 м 
[Sc]
-4.6 -7.1 83 -4  1025.3  757  311           
12 18.11.15 100 (В) 10 км    10/10 480 м 
[Sc]
-4.3 -7 82 -4  1024.9  -0.3  757  311           
15 18.11.15 090 (В) 10 км    3/3 300 м 
[Sc]
-5.1 -7.1 86 -6  1024.9  -0.1  757  312    -3.9       
18 18.11.15 100 (В) 10 км    10/0 средняя 
[As op]
-5.6 -7.1 89 -5  1024.7  -0.2  757  312           
21 18.11.15 130 (ЮВ) 10 км    10/0 средняя 
[As op]
-5.1 -6.7 89 -6  1024.4  -0.2  757  311           
00 19.11.15 100 (В) 10 км    10/10 1000 м 
[Sc]
-5.3 -6.7 90 -5  1023.9  -0.5  756  312           
03 19.11.15 130 (ЮВ) 10 км    10/10 1000 м 
[Sc]
-5.4 -6.6 91 -7  1023.5  -0.4  756  312  -6.1      11  равномерный
сухой снег
100% 
06 19.11.15 140 (ЮВ) 4000 м  снежные зёрна  10/10 300 м 
[St]
-4.8 -6.1 91 -6  1023.8  0.3  756  311           
09 19.11.15 140 (ЮВ) 10 км  {снег}  10/10 300 м 
[St]
-4.3 -6 88 -6  1023.3  -0.4  756  310           
12 19.11.15 150 (ЮВ) 10 км  {снег}  10/10 300 м 
[St]
-3.9 -5.6 88 -5  1022.8  -0.5  756  310           
15 19.11.15 140 (ЮВ) 10 км    10/10 300 м 
[St]
-4.2 -5.9 88 -6  1022  -0.8  755  310    -3.8       
18 19.11.15 140 (ЮВ) 10 км    10/10 300 м 
[St]
-5.3 -7 88 -8  1021.2  -0.8  754  311           
21 19.11.15 150 (ЮВ) 2000 м  снег  10/10 300 м 
[Frnb|Ns]
-5.3 -6.5 91 -8  1020.2  -1  754  310           
00 20.11.15 140 (ЮВ) н/о    н/о 
-6 -7.2 91 -9  1018.8  -1  753  311           
03 20.11.15 130 (ЮВ) 3-10{10}  10 км  {снег}  10/10 300 м 
[Sc]
-5.2 -6.4 91 -8  1017.2  -1.5  751  309  -6.1    0.0  10  равномерный
сухой снег
100% 
06 20.11.15 140 (ЮВ) 4{13}  4000 м  слаб. снег  10/10 300 м 
[Frnb|Ns]
-4.6 -6 90 -8  1016.5  -0.6  751  308           
09 20.11.15 150 (ЮВ) 5-12{12}  1000 м  сильн. снег  10/10 300 м 
[Frnb|Ns]
-4.7 -6.3 89 -9  1015.6  -0.9  750  308           
12 20.11.15 150 (ЮВ) 4-10{13}  1000 м  сильн. снег  10/10 300 м 
[Frnb|Ns]
-5.6 -7.1 89 -9  1014.8  -0.8  750  309           
15 20.11.15 140 (ЮВ) 4{15}  1000 м  сильн. снег  10/10 300 м 
[Frnb|Ns]
-6.9 -8.6 88 -10  1014.2  -0.6  749  311    -4.3     
18 20.11.15 150 (ЮВ) 5-11{12}  1000 м  сильн. снег  10/10 300 м 
[Frnb|Ns]
-7.8 -9.6 87 -12  1013.8  -0.4  749  312           
21 20.11.15 140 (ЮВ) 3{11}  4000 м  слаб. снег  10/10 300 м 
[Frnb|Ns]
-7.9 -10.1 84 -11  1012.8  -1  748  311           
00 21.11.15 130 (ЮВ) 4-11{11}  10 км  {снег}  10/0 средняя 
[As op]
-7.7 -9.8 85 -11  1010.5  -2.3  746  310           
03 21.11.15 120 (ЮВ) 4{12}  4000 м  слаб. снег  10/10 300 м 
[Frnb|Ns]
-7.2 -9.1 86 -11  1007.5  -2.9  744  309  -8.1    13  равномерный
сухой снег
100% 
06 21.11.15 120 (ЮВ) 3{13}  0500 м  сильн. снег{дождь}  10/10 100 м 
[Frnb|Ns]
-6.7 -8.1 90 -9  1002.5  -4.8  740  307           
09 21.11.15 130 (ЮВ) 4{13}  0500 м  сильн. снег  10/10 100 м 
[Frnb|Ns]
-3.7 -5 91 -7  998.1  -4.1  737  302           
12 21.11.15 160 (Ю) 3{12}  10 км  в посл. час снег  10/10 300 м 
[Ns]
+0.5 -0.5 93 -1  997.2  -0.6  737  296           
15 21.11.15 230 (ЮЗ) 10 км  в посл. час дождь  10/10 300 м 
[Frnb|Ns]
+3.3 +1.9 90 +2  1000.7  3.6  740  294    +3.3  10     
18 21.11.15 180 (Ю) 1{13}  10 км  {дождь}  10/9 300 м средняя 
[Frnb|As op]
+3.3 +1.1 85 +4  1004.1  3.3  742  295           
21 21.11.15 170 (Ю) 10 км    10/4 300 м средняя 
[Frnb|As op]
+2.4 +0.4 87 +2  1005.8  1.7  743  297           
00 22.11.15 130 (ЮВ) 4000 м  слаб. дождь  10/10 300 м 
[Frnb|Ns]
+1.8 +0.6 92 +1  1004.9  -1  743  297           
03 22.11.15 120 (ЮВ) 4000 м  слаб. дождь  10/10 200 м 
[Frnb|Ns]
+1.6 +0.5 92 +1  1002.2  -2.6  741  297  +1.6    14  равномерный
мокрый или
старый снег
100% 
06 22.11.15 160 (Ю) 4000 м  в посл. час дождь  10/10 100 м 
[St]
+1.7 +0.8 94 +2  1002.3  0.2  741  296  +1.5         
09 22.11.15 290 (З) 4000 м  в посл. час туман{морось}  10/10 200 м 
[St]
+2.3 +1.4 94 +2  1006  3.6  743  297           
12 22.11.15 010 (С) 10 км  {морось, туман}  10/10 200 м 
[St]
+1.3 +0.3 93 +2  1008.6  2.6  745  299           
15 22.11.15 090 (В) 10 км    10/10 300 м 
[St]
+1.1 -0 92 +2  1009.9  1.2  746  299    +2.3     
18 22.11.15 100 (В) 10 км  слаб. дождь  10/10 200 м 
[Frnb|Ns]
+0.5 -0.4 94 -1  1008.5  -1.4  745  300           
21 22.11.15 100 (В) 4000 м  морось{дождь}  10/10 50 м 
[St]
+2.3 +1.4 94 +2  1005.5  -2.9  743  297           
00 23.11.15 170 (Ю) 1000 м  дождь{морось}  10/10 100 м 
[Frnb|Ns]
+4.4 +3.7 95 +4  1002.9  -2.4  741  293           
03 23.11.15 200 (Ю) 10 км  {дождь}  10/10 200 м 
[Frnb|Ns]
+6.9 +6.3 96 +8  1002.3  -0.5  741  290  +0.5    мокрый или
старый снег
50-90% 
06 23.11.15 230 (ЮЗ) 10 км  {дождь}  10/10 300 м 
[Sc]
+9 +7.8 92 +9  1003.6  1.4  742  288           
09 23.11.15 260 (З) 10 км  в посл. час дождь  10/8 300 м средняя 
[St|As op]
+8.7 +6.7 87 +8  1006.7  3.1  744  290           
12 23.11.15 260 (З) 10 км  слаб. дождь  10/10 300 м 
[Frnb|Ns]
+4.1 +1.9 86 +4  1010.1  3.1  747  296           
15 23.11.15 290 (З) 10 км  {дождь}  10/10 300 м 
[St]
+2.3 +0.8 90 +2  1012  1.7  748  299    +9.5  0.0     
18 23.11.15 340 (С) 2000 м  дымка{дождь}  10/10 100 м 
[St]
+1.4 +0.3 92 +2  1013.8  1.7  749  300           
21 23.11.15 320 (СЗ) 4000 м  слаб. морось  10/10 200 м 
[St]
+1 -0.2 92 +2  1015.6  1.8  751  301           
00 24.11.15 320 (СЗ) 10 км  {морось}  10/10 300 м 
[St]
+0.8 -0.4 92 +1  1017.4  1.8  752  302           
03 24.11.15 340 (С) 4000 м  слаб. снег  10/10 300 м 
[Sc]
-0.5 -2 89 1019.5  753  304  -0.5    0.0  мокрый или
старый снег
10-40% 
06 24.11.15 310 (СЗ) 10 км  {снег}  5/0 верхняя 
[Ci fib]
-1.7 -5.4 76 -1  1021.8  2.1  755  307  -1.8         
09 24.11.15 300 (СЗ) 10 км    10/10 600 м 
[Sc]
-1 -5.4 72 -2  1022.7  756  306           
12 24.11.15 240 (ЮЗ) 10 км    10/10 300 м 
[Frnb]
-0.9 -4.5 77 -2  1024  1.2  757  306           
15 24.11.15 270 (З) 10 км    10/9 300 м средняя 
[Frnb|As op]
-1 -3.6 82 1024.6  0.6  757  307    -0.5       
18 24.11.15 240 (ЮЗ) 10 км    10/10 300 м 
[Sc]
-1.1 -3.6 83 -1  1024.9  0.3  757  307           
21 24.11.15 230 (ЮЗ) 10 км    10/10 600 м 
[Sc]
-1.2 -3.7 83 -1  1024.9  757  307           
00 25.11.15 тихо ()   10 км    10/10 600 м 
[Sc]
-1.6 -3.7 86 -2  1024.7  -0.2  757  307           
03 25.11.15 140 (ЮВ) 10 км    10/10 600 м 
[Sc]
-1.9 -4.6 82 -1  1023.7  -1  756  307  -2      мокрый или
старый снег
10-40% 
06 25.11.15 150 (ЮВ) 10 км    ясно 
-1.8 -3.7 87 -1  1023.5  -0.2  756  307  -2.1         
09 25.11.15 230 (ЮЗ) 10 км    10/10 600 м 
[Sc]
-0.6 -5 72 -1  1023.1  -0.3  756  306           
12 25.11.15 150 (ЮВ) 10 км    10/10 600 м 
[Sc]
-0.6 -4.7 74 1022.4  -0.8  755  306           
15 25.11.15 140 (ЮВ) 10 км    10/10 600 м 
[Sc]
-1.7 -4.7 80 -3  1022.4  755  307    +0.8       
18 25.11.15 тихо ()   10 км    9/9 600 м 
[Sc]
-2.3 -4.3 86 -2  1021.9  -0.6  755  307           
21 25.11.15 040 (СВ) 10 км    9/3 1000 м средняя 
[Sc|Ac trans]
-2.3 -5 82 -2  1021.8  0.1  755  307           
00 26.11.15 060 (СВ) 10 км    6/0 средняя 
[Ac trans]
-3.3 -5.4 85 -3  1021  -0.8  754  308           
03 26.11.15 080 (В) 10 км    5/0 средняя 
[Ac trans]
-3.8 -5.9 85 -5  1020.7  -0.4  754  309  -3.8      мокрый или
старый снег
10-40% 
06 26.11.15 090 (В) 10 км    3/0 средняя, верхняя 
[Ac lent|Ci fib]
-4.4 -7.2 81 -6  1020.5  -0.2  754  310  -4.5         
09 26.11.15 090 (В) 10 км    3/0 верхняя 
[Ci fib]
-1.9 -7 68 -3  1018.8  -1.5  753  306           
12 26.11.15 080 (В) 10 км    10/0 средняя 
[As trans]
-2.2 -7.4 68 -5  1017.5  -1.4  752  306           
15 26.11.15 070 (В) 3{11}  4000 м  слаб. снег  10/10 1000 м 
[Sc]
-2.5 -7.5 69 -5  1014.9  -2.6  750  306    -1.8  0.0     
18 26.11.15 060 (СВ) 4-10{10}  4000 м  снег  10/10 300 м 
[Frnb|Ns]
-3.5 -6.2 82 -6  1012.1  -2.8  748  306           
21 26.11.15 030 (СВ) 2{10}  0500 м  сильн. снег  10/10 200 м 
[Frnb|Ns]
-4.1 -5.4 91 -5  1009.7  -2.4  746  306           
00 27.11.15 010 (С) 3{10}  4000 м  снег  10/10 300 м 
[Frnb|Ns]
-4.8 -6 91 -7  1008.3  -1.4  745  306           
03 27.11.15 350 (С) 1000 м  сильн. снег  10/10 200 м 
[Frnb|Ns]
-5.4 -6.7 90 -8  1008.3  0.1  745  307  -5.4    равномерный
сухой снег
100% 
06 27.11.15 330 (СЗ) 1000 м  сильн. снег  10/10 200 м 
[Frnb|Ns]
-5.5 -7.3 87 -8  1009.4  1.1  746  307  -5.5         
09 27.11.15 310 (СЗ) 10 км  слаб. снег  10/10 600 м 
[Sc]
-4.4 -8.4 74 -7  1009.9  0.5  746  306           
12 27.11.15 280 (З) 10 км  {снег}  9/9 600 м 
[Sc]
-5.7 -8.4 81 -9  1011.8  1.8  747  308           
15 27.11.15 290 (З) 10 км    10/10 600 м 
[Sc]
-7.8 -9.6 87 -11  1013.1  1.2  748  311    -4.1     
18 27.11.15 270 (З) 3{10}  10 км    10/5 300 м средняя 
[St|As op]
-5.4 -7.2 87 -8  1013  748  308           
21 27.11.15 270 (З) 10 км    8/0 средняя 
[As trans]
-4.9 -7.8 80 -8  1012.4  -0.6  748  308           
00 28.11.15 270 (З) 4{10}  10 км    9/8 300 м средняя 
[Frnb|As op]
-4.6 -7.3 82 -8  1013.1  0.7  748  307           
03 28.11.15 280 (З) 4{10}  10 км    10/10 300 м 
[St]
-4.1 -6.3 85 -7  1013  748  307  -7.8      равномерный
сухой снег
100% 
06 28.11.15 280 (З) 10 км    10/10 300 м 
[St]
-3.3 -5.3 86 -6  1014.2  1.2  749  306           
09 28.11.15 270 (З) 10 км    10/10 300 м 
[St]
-2.5 -4.9 84 -5  1014.4  0.3  749  305           
12 28.11.15 260 (З) 10 км    10/10 300 м 
[St]
-2.1 -4.4 84 -4  1015.2  0.8  750  305           
15 28.11.15 270 (З) 10 км    10/10 300 м 
[St]
-1.9 -3.8 87 -4  1015.9  0.7  751  305    -1.9       
18 28.11.15 280 (З) 10 км    10/10 300 м 
[St]
-1.7 -3.9 85 -3  1016.5  0.7  751  305           
21 28.11.15 270 (З) 10 км    8/0 средняя 
[Ac lent]
-1.9 -4.6 82 -3  1016.9  0.3  751  305           
00 29.11.15 260 (З) 10 км    8/0 средняя 
[Ac lent]
-1.8 -5.6 75 -3  1018  1.1  752  306           
03 29.11.15 280 (З) 10 км    4/0 средняя 
[Ac lent]
-2.9 -6.7 75 -4  1018.8  0.7  753  307  -3      равномерный
сухой снег
100% 
06 29.11.15 260 (З) 10 км    4/0 средняя 
[Ac lent]
-3.3 -7.4 73 -4  1019.9  1.1  754  308  -3.5         
09 29.11.15 260 (З) 10 км    10/0 средняя 
[Ac und]
-2.3 -6.9 71 -3  1020.8  0.9  754  307           
12 29.11.15 160 (Ю) 10 км    10/0 средняя 
[Ac As]
-2 -6.7 70 -1  1021.4  0.6  755  307           
15 29.11.15 150 (ЮВ) 10 км    10/0 средняя 
[Ac As]
-2.6 -6.3 76 -2  1021.9  0.4  755  308    -1.8       
18 29.11.15 140 (ЮВ) 10 км    9/0 средняя 
[Ac trans]
-3 -6.2 79 -3  1021.6  -0.4  755  308           
21 29.11.15 130 (ЮВ) 10 км    8/0 средняя 
[Ac As]
-4 -6.8 81 -4  1021.6  755  309           
00 30.11.15 130 (ЮВ) 10 км    ясно 
-4.7 -6.9 85 -6  1021.1  -0.5  754  310           
03 30.11.15 130 (ЮВ) 10 км    3/0 средняя 
[Ac trans]
-6 -7.5 89 -7  1020.5  -0.7  754  311  -6      равномерный
сухой снег
100% 
06 30.11.15 140 (ЮВ) 10 км    10/10 1000 м 
[Sc]
-4.4 -5.7 91 -6  1020.4  754  309  -6         
09 30.11.15 150 (ЮВ) 10 км    9/0 средняя, верхняя 
[Ac As|Ci fib]
-2.1 -5.6 77 -4  1019.1  -1.1  753  306           
12 30.11.15 140 (ЮВ) 4000 м  слаб. снег  10/6 1500 м средняя 
[Sc|As trans]
-2 -6.2 73 -5  1017  -2.1  751  306           
15 30.11.15 130 (ЮВ) 3{10}  10 км  в посл. час снег  10/6 1500 м средняя 
[Sc|As trans]
-1.2 -6.1 69 -3  1015.3  -1.6  750  304    -1.2  0.3     
18 30.11.15 140 (ЮВ) 4{10}  4000 м  слаб. дождь со снегом [диам. гололёда 0 мм]  10/10 1000 м 
[Sc diur, vesp]
-1.5 -4.6 79 -4  1013.9  -1.4  749  304           
21 30.11.15 140 (ЮВ) 4{10}  10 км  в посл. час переохл. осадки (гололёд){снег, дождь} [диам. гололёда 1 мм]  10/10 300 м 
[Ns]
-0.8 -3.8 80 -3  1012.7  -1.1  748  303           
00 01.12.15 140 (ЮВ) 3-10  10 км  в посл. час снег{дождь} [диам. гололёда 1 мм]  10/10 300 м 
[St]
-0.7 -3.8 79 -3  1011.6  -1  748  302           
03 01.12.15 170 (Ю) 10 км    10/10 300 м 
[St]
-0.4 -2.3 87 -1  1011.5  -0.1  747  302  -1.9    неравномерный
мокрый или
старый снег
100% 
06 01.12.15 160 (Ю) 10 км  в посл. час снег  10/10 300 м 
[St]
+0.1 -1.4 90 -1  1011.5  0.1  747  301           
09 01.12.15 170 (Ю) 3{10}  10 км    10/10 300 м 
[St]
+0.2 -1.6 88 -2  1011.5  747  301           
12 01.12.15 140 (ЮВ) 10 км    10/10 300 м 
[St]
-0.1 -1.6 90 -1  1011.3  -0.2  747  301           
15 01.12.15 130 (ЮВ) 10 км    10/10 300 м 
[St]
-0.3 -1.7 90 -1  1011.4  0.1  747  302    +0.4  0.2     
18 01.12.15 140 (ЮВ) 2000 м  снег  10/10 300 м 
[Frnb|Ns]
-0.6 -1.6 93 -2  1010.1  -1.3  746  302           
21 01.12.15 140 (ЮВ) 1000 м  сильн. снег  10/10 300 м 
[Frnb|Ns]
-1.1 -2 93 -3  1009  -1.1  746  302           
00 02.12.15 180 (Ю) 10 км  в посл. час снег  10/10 300 м 
[Frnb|Ns]
-1 -1.8 94 1008.7  -0.3  745  302           
03 02.12.15 160 (Ю) 10 км    10/10 200 м 
[St]
-0.3 -1.1 94 1010.5  1.8  747  301  -1.2    13  равномерный
мокрый или
старый снег
100% 
Время (UTC), дата Ветер
(°,м/с) 
Видим.   Явления Облачность Т
(°С)
Тd
(°С)
f(%) Тe
(°С)
Pmin
(гПа)
dP
(гПа)
Po
(мм)
O2
(г/м3)
Тmin Tmax R s Состояние
почвы